Weather reports worldwide

Advertisment
Newton Rigg, United Kingdom (99152): temperature & dewpoint: 12.09.2019 05:00:00 - 18.09.2019 05:00:00 (BST)Newton Rigg, United Kingdom (99152): temperature -20cm & temperature -100cm: 12.09.2019 05:00:00 - 18.09.2019 05:00:00 (BST)Newton Rigg, United Kingdom (99152): precipitation: 12.09.2019 05:00:00 - 18.09.2019 05:00:00 (BST)
Date & Time tt [°C] td [°C] tt -20cm [°C] tt -100cm [°C] rr [mm]
18.09.2019 05:00:00 - - - - -
18.09.2019 04:00:00 5,4 4,9 - - 0,0
18.09.2019 03:00:00 4,0 3,5 - - 0,0
18.09.2019 02:00:00 4,5 4,0 - - 0,0
18.09.2019 01:00:00 4,7 3,7 - - 0,0
18.09.2019 00:00:00 6,2 4,7 - - 0,0
17.09.2019 23:00:00 7,0 4,7 - - 0,0
17.09.2019 22:00:00 8,4 4,8 - - 0,0
17.09.2019 21:00:00 9,7 5,7 - - 0,0
17.09.2019 20:00:00 10,5 5,5 - - 0,0
17.09.2019 19:00:00 12,9 4,3 - - 0,0
17.09.2019 18:00:00 14,6 3,6 - - 0,0
17.09.2019 17:00:00 15,2 4,3 - - 0,0
17.09.2019 16:00:00 15,2 4,4 - - 0,0
17.09.2019 15:00:00 15,3 5,9 - - 0,0
17.09.2019 14:00:00 15,3 5,9 - - 0,0
17.09.2019 13:00:00 14,7 6,6 - - 0,0
17.09.2019 12:00:00 14,0 5,4 - - 0,0
17.09.2019 11:00:00 13,7 7,9 - - 0,0
17.09.2019 10:00:00 12,1 7,1 14,2 14,4 0,0
17.09.2019 09:00:00 11,4 6,6 - - 0,0
17.09.2019 08:00:00 8,5 5,8 - - 0,0
17.09.2019 07:00:00 7,4 5,7 - - 0,0
17.09.2019 06:00:00 8,8 6,4 - - 0,0
17.09.2019 05:00:00 9,2 6,8 - - 0,0
17.09.2019 04:00:00 8,9 6,1 - - 0,0
17.09.2019 03:00:00 8,3 5,7 - - 0,0
17.09.2019 02:00:00 9,0 6,5 - - 0,0
17.09.2019 01:00:00 8,3 6,6 - - 0,0
17.09.2019 00:00:00 8,5 6,3 - - 0,0
16.09.2019 23:00:00 8,5 5,7 - - 0,0
16.09.2019 22:00:00 10,1 6,2 - - 0,0
16.09.2019 21:00:00 11,0 7,3 - - 0,0
16.09.2019 20:00:00 10,5 6,2 - - 0,0
16.09.2019 19:00:00 12,5 7,1 - - 0,0
16.09.2019 18:00:00 13,4 8,3 - - 0,0
16.09.2019 17:00:00 14,2 8,4 - - 0,0
16.09.2019 16:00:00 14,6 7,6 - - 0,0
16.09.2019 15:00:00 14,5 7,4 - - 0,0
16.09.2019 14:00:00 14,8 6,6 - - 0,0
16.09.2019 13:00:00 14,9 6,3 - - 0,0
16.09.2019 12:00:00 14,5 7,1 - - 0,0
16.09.2019 11:00:00 13,6 9,1 - - 0,0
16.09.2019 10:00:00 9,9 9,0 14,2 14,5 0,0
16.09.2019 09:00:00 7,4 7,3 - - 0,0
16.09.2019 08:00:00 4,9 4,8 - - 0,0
16.09.2019 07:00:00 4,3 4,1 - - 0,0
16.09.2019 06:00:00 5,5 5,4 - - 0,0
16.09.2019 05:00:00 4,3 4,1 - - 0,0
16.09.2019 04:00:00 5,0 4,7 - - 0,0
16.09.2019 03:00:00 5,3 5,0 - - 0,0
16.09.2019 02:00:00 6,0 5,6 - - 0,0
16.09.2019 01:00:00 6,3 5,8 - - 0,0
16.09.2019 00:00:00 6,8 6,1 - - 0,0
15.09.2019 23:00:00 7,6 6,5 - - 0,0
15.09.2019 22:00:00 8,3 7,0 - - 0,0
15.09.2019 21:00:00 8,3 6,4 - - 0,0
15.09.2019 20:00:00 10,0 7,1 - - 0,0
15.09.2019 19:00:00 12,0 8,3 - - 0,0
15.09.2019 18:00:00 12,9 8,5 - - 0,0
15.09.2019 17:00:00 13,1 8,1 - - 0,0
15.09.2019 16:00:00 13,2 8,6 - - 0,0
15.09.2019 15:00:00 13,6 7,7 - - 0,0
15.09.2019 14:00:00 13,5 7,6 - - 0,0
15.09.2019 13:00:00 13,3 7,0 - - 0,0
15.09.2019 12:00:00 12,9 6,5 - - 0,0
15.09.2019 11:00:00 12,4 7,3 - - 0,0
15.09.2019 10:00:00 12,5 8,6 14,7 14,5 0,0
15.09.2019 09:00:00 12,3 9,2 - - 0,0
15.09.2019 08:00:00 12,3 9,6 - - 0,0
15.09.2019 07:00:00 11,9 10,1 - - 0,0
15.09.2019 06:00:00 11,6 10,1 - - 0,0
15.09.2019 05:00:00 12,3 11,4 - - 0,0
15.09.2019 04:00:00 13,1 11,9 - - 0,2
15.09.2019 03:00:00 14,6 13,2 - - 0,2
15.09.2019 02:00:00 14,6 13,3 - - 0,2
15.09.2019 01:00:00 14,0 12,8 - - 0,2
15.09.2019 00:00:00 14,0 12,2 - - 0,0
14.09.2019 23:00:00 16,1 10,1 - - 0,0
14.09.2019 22:00:00 15,6 9,7 - - 0,0
14.09.2019 21:00:00 14,7 8,6 - - 0,0
14.09.2019 20:00:00 14,1 8,5 - - 0,0
14.09.2019 19:00:00 14,4 8,6 - - 0,0
14.09.2019 18:00:00 15,2 8,5 - - 0,0
14.09.2019 17:00:00 16,9 7,2 - - 0,0
14.09.2019 16:00:00 15,8 7,4 - - 0,0
14.09.2019 15:00:00 15,7 8,9 - - 0,0
14.09.2019 14:00:00 16,5 8,6 - - 0,0
14.09.2019 13:00:00 15,6 8,7 - - 0,0
14.09.2019 12:00:00 15,0 9,3 - - 0,0
14.09.2019 11:00:00 14,0 8,6 - - 0,0
14.09.2019 10:00:00 13,5 8,3 14,7 14,7 0,0
14.09.2019 09:00:00 10,2 8,5 - - 0,0
14.09.2019 08:00:00 7,0 6,6 - - 0,0
14.09.2019 07:00:00 5,7 5,4 - - 0,0
14.09.2019 06:00:00 4,6 3,9 - - 0,0
14.09.2019 05:00:00 6,0 5,6 - - 0,0
14.09.2019 04:00:00 5,0 4,6 - - 0,0
14.09.2019 03:00:00 4,6 4,1 - - 0,0
14.09.2019 02:00:00 5,5 4,9 - - 0,0
14.09.2019 01:00:00 6,7 5,9 - - 0,0
14.09.2019 00:00:00 7,4 6,2 - - 0,0
13.09.2019 23:00:00 7,5 6,2 - - 0,0
13.09.2019 22:00:00 8,1 6,6 - - 0,0
13.09.2019 21:00:00 8,8 6,3 - - 0,0
13.09.2019 20:00:00 10,6 7,3 - - 0,0
13.09.2019 19:00:00 12,8 6,8 - - 0,0
13.09.2019 18:00:00 14,2 7,3 - - 0,0
13.09.2019 17:00:00 15,6 7,4 - - 0,0
13.09.2019 16:00:00 15,7 7,2 - - 0,0
13.09.2019 15:00:00 15,5 7,7 - - 0,0
13.09.2019 14:00:00 15,3 8,2 - - 0,0
13.09.2019 13:00:00 14,2 8,8 - - 0,0
13.09.2019 12:00:00 13,7 7,8 - - 0,0
13.09.2019 11:00:00 13,3 7,9 - - 0,0
13.09.2019 10:00:00 12,7 9,1 15,0 14,7 0,0
13.09.2019 09:00:00 10,5 9,9 - - 0,0
13.09.2019 08:00:00 7,4 6,9 - - 0,0
13.09.2019 07:00:00 7,2 5,8 - - 0,0
13.09.2019 06:00:00 8,8 7,3 - - 0,0
13.09.2019 05:00:00 7,7 6,2 - - 0,0
13.09.2019 04:00:00 8,1 6,5 - - 0,0
13.09.2019 03:00:00 8,6 6,4 - - 0,0
13.09.2019 02:00:00 8,6 6,6 - - 0,0
13.09.2019 01:00:00 9,6 6,9 - - 0,0
13.09.2019 00:00:00 9,9 7,4 - - 0,0
12.09.2019 23:00:00 10,2 8,2 - - 0,0
12.09.2019 22:00:00 10,6 7,8 - - 0,0
12.09.2019 21:00:00 11,3 8,7 - - 0,0
12.09.2019 20:00:00 12,6 10,2 - - 0,0
12.09.2019 19:00:00 13,9 11,5 - - 0,0
12.09.2019 18:00:00 14,3 13,1 - - 0,4
12.09.2019 17:00:00 16,5 15,4 - - 0,0
12.09.2019 16:00:00 16,7 15,4 - - 0,0
12.09.2019 15:00:00 17,1 14,8 - - 0,0
12.09.2019 14:00:00 17,6 14,3 - - 0,0
12.09.2019 13:00:00 16,6 14,5 - - 0,0
12.09.2019 12:00:00 16,0 13,6 - - 0,0
12.09.2019 11:00:00 16,7 13,2 - - 0,0
12.09.2019 10:00:00 14,6 11,9 15,0 14,7 0,0
12.09.2019 09:00:00 14,2 10,6 - - 0,0
12.09.2019 08:00:00 13,7 10,5 - - 0,0
12.09.2019 07:00:00 13,1 10,5 - - 0,0
12.09.2019 06:00:00 12,7 9,9 - - 0,0
12.09.2019 05:00:00 13,5 9,8 - - 0,0

tt = temperature
td = dewpoint
tt -20cm = temperature -20cm
tt -100cm = temperature -100cm
rr = precipitation

Next stations